,,Stat6,,Stat2,,Stat8,,Stat9,,Stat10,,Wind1,,Wind1,
time,status,PA1M_AVG,status,PR1M_SUM,status,RH1M_AVG,status,SR1M_AVG,status,TA1M_AVG,status,W1dAve1m,status,W1sAve1m,
2007-03-19, 00:00:00,VALID,915.369,VALID,0,VALID,100,VALID,10.0866,VALID,19.5071,VALID,44,VALID,0,
2007-03-19, 00:01:00,VALID,915.383,VALID,0,VALID,100,VALID,10.2734,VALID,19.5209,VALID,44,VALID,0,
2007-03-19, 00:02:00,VALID,915.397,VALID,0,VALID,100,VALID,10.5791,VALID,19.5371,VALID,44,VALID,0,
2007-03-19, 00:03:00,VALID,915.42,VALID,0,VALID,100,VALID,10.7658,VALID,19.5506,VALID,44,VALID,0,
2007-03-19, 00:04:00,VALID,915.441,VALID,0,VALID,100,VALID,11.0375,VALID,19.563,VALID,44,VALID,0,
2007-03-19, 00:05:00,VALID,915.442,VALID,0,VALID,100,VALID,11.3941,VALID,19.5793,VALID,44,VALID,0,
2007-03-19, 00:06:00,VALID,915.458,VALID,0,VALID,100,VALID,11.7677,VALID,19.5892,VALID,44,VALID,0,
2007-03-19, 00:07:00,VALID,915.486,VALID,0,VALID,100,VALID,12.0394,VALID,19.6085,VALID,44,VALID,0,
2007-03-19, 00:08:00,VALID,915.503,VALID,0.2,VALID,100,VALID,12.379,VALID,19.6184,VALID,44,VALID,0.0244391,
2007-03-19, 00:09:00,VALID,915.528,VALID,0,VALID,100,VALID,12.8205,VALID,19.6441,VALID,44,VALID,0.0208333,
2007-03-19, 00:10:00,VALID,915.542,VALID,0,VALID,100,VALID,13.3639,VALID,19.6736,VALID,44,VALID,0,
2007-03-19, 00:11:00,VALID,915.553,VALID,0,VALID,100,VALID,13.8394,VALID,19.6993,VALID,44,VALID,0,
2007-03-19, 00:12:00,VALID,915.567,VALID,0,VALID,100,VALID,14.2809,VALID,19.7155,VALID,44,VALID,0.137228,
2007-03-19, 00:13:00,VALID,915.567,VALID,0,VALID,100,VALID,14.7903,VALID,19.7382,VALID,44,VALID,0.377287,
2007-03-19, 00:14:00,VALID,915.586,VALID,0,VALID,100,VALID,15.4695,VALID,19.7637,VALID,44,VALID,0.21684,
2007-03-19, 00:15:00,VALID,915.611,VALID,0,VALID,100,VALID,16.2846,VALID,19.7829,VALID,44,VALID,0.169141,
2007-03-19, 00:16:00,VALID,915.633,VALID,0,VALID,100,VALID,17.1846,VALID,19.8064,VALID,44,VALID,0.162305,
2007-03-19, 00:17:00,VALID,915.643,VALID,0,VALID,100,VALID,18.1525,VALID,19.8031,VALID,44,VALID,0.144436,
2007-03-19, 00:18:00,VALID,915.658,VALID,0,VALID,100,VALID,18.6959,VALID,19.754,VALID,44,VALID,0.324033,
2007-03-19, 00:19:00,VALID,915.676,VALID,0,VALID,100,VALID,19.2563,VALID,19.7285,VALID,44,VALID,0.324505,
2007-03-19, 00:20:00,VALID,915.69,VALID,0,VALID,100,VALID,19.8336,VALID,19.7415,VALID,44,VALID,0.0459666,
2007-03-19, 00:21:00,VALID,915.71,VALID,0,VALID,100,VALID,20.4959,VALID,19.7542,VALID,44,VALID,0.123512,
2007-03-19, 00:22:00,VALID,915.745,VALID,0,VALID,100,VALID,21.1411,VALID,19.761,VALID,44,VALID,0.213299,
2007-03-19, 00:23:00,VALID,915.758,VALID,0,VALID,100,VALID,21.7864,VALID,19.7412,VALID,44,VALID,0.190952,
2007-03-19, 00:24:00,VALID,915.765,VALID,0,VALID,100,VALID,22.4656,VALID,19.735,VALID,38,VALID,0.36059,
2007-03-19, 00:25:00,VALID,915.778,VALID,0,VALID,100,VALID,23.1109,VALID,19.722,VALID,37,VALID,0.276414,
2007-03-19, 00:26:00,VALID,915.785,VALID,0,VALID,100,VALID,23.8581,VALID,19.7158,VALID,37,VALID,0.182594,
2007-03-19, 00:27:00,VALID,915.801,VALID,0,VALID,100,VALID,24.6901,VALID,19.7025,VALID,37,VALID,0,
2007-03-19, 00:28:00,VALID,915.824,VALID,0,VALID,100,VALID,25.5222,VALID,19.7085,VALID,37,VALID,0,
2007-03-19, 00:29:00,VALID,915.837,VALID,0,VALID,100,VALID,26.2863,VALID,19.7382,VALID,37,VALID,0.00669643,
2007-03-19, 00:30:00,VALID,915.866,VALID,0,VALID,100,VALID,27.2203,VALID,19.7347,VALID,37,VALID,0.161458,
2007-03-19, 00:31:00,VALID,915.882,VALID,0,VALID,100,VALID,28.2901,VALID,19.7255,VALID,37,VALID,0.21218,
2007-03-19, 00:32:00,VALID,915.918,VALID,0,VALID,100,VALID,29.3599,VALID,19.7255,VALID,37,VALID,0.087936,
2007-03-19, 00:33:00,VALID,915.95,VALID,0,VALID,100,VALID,30.4296,VALID,19.7412,VALID,37,VALID,0.0163194,
2007-03-19, 00:34:00,VALID,915.99,VALID,0,VALID,100,VALID,31.2787,VALID,19.7517,VALID,351,VALID,0.18457,
2007-03-19, 00:35:00,VALID,916.024,VALID,0,VALID,100,VALID,31.8391,VALID,19.7315,VALID,270,VALID,0.583274,
2007-03-19, 00:36:00,VALID,916.059,VALID,0,VALID,100,VALID,32.6541,VALID,19.7255,VALID,268,VALID,0.52689,
2007-03-19, 00:37:00,VALID,916.093,VALID,0,VALID,100,VALID,33.8428,VALID,19.7185,VALID,255,VALID,0.403232,
2007-03-19, 00:38:00,VALID,916.108,VALID,0,VALID,100,VALID,35.1503,VALID,19.7315,VALID,249,VALID,0.332304,
2007-03-19, 00:39:00,VALID,916.132,VALID,0,VALID,100,VALID,36.1522,VALID,19.7412,VALID,244,VALID,0.160342,
2007-03-19, 00:40:00,VALID,916.155,VALID,0,VALID,100,VALID,36.8484,VALID,19.7612,VALID,244,VALID,0.109933,
2007-03-19, 00:41:00,VALID,916.184,VALID,0,VALID,100,VALID,37.5616,VALID,19.7934,VALID,244,VALID,0.00223214,
2007-03-19, 00:42:00,VALID,916.199,VALID,0,VALID,100,VALID,38.5465,VALID,19.8258,VALID,244,VALID,0,
2007-03-19, 00:43:00,VALID,916.219,VALID,0,VALID,100,VALID,39.5144,VALID,19.8486,VALID,244,VALID,0,
2007-03-19, 00:44:00,VALID,916.229,VALID,0,VALID,100,VALID,40.0238,VALID,19.8521,VALID,244,VALID,0,
2007-03-19, 00:45:00,VALID,916.247,VALID,0,VALID,100,VALID,40.7031,VALID,19.8423,VALID,244,VALID,0,
2007-03-19, 00:46:00,VALID,916.256,VALID,0,VALID,100,VALID,40.2785,VALID,19.8451,VALID,244,VALID,0,
2007-03-19, 00:47:00,VALID,916.268,VALID,0,VALID,100,VALID,40.2106,VALID,19.8615,VALID,244,VALID,0,
2007-03-19, 00:48:00,VALID,916.279,VALID,0,VALID,100,VALID,40.3974,VALID,19.8745,VALID,244,VALID,0.050327,
2007-03-19, 00:49:00,VALID,916.296,VALID,0,VALID,100,VALID,41.1106,VALID,19.8972,VALID,243,VALID,0.406631,
2007-03-19, 00:50:00,VALID,916.313,VALID,0,VALID,100,VALID,43.2672,VALID,19.9005,VALID,241,VALID,0.360054,
2007-03-19, 00:51:00,VALID,916.329,VALID,0,VALID,100,VALID,46.5445,VALID,19.8972,VALID,244,VALID,0.560938,
2007-03-19, 00:52:00,VALID,916.35,VALID,0,VALID,100,VALID,48.3614,VALID,19.8421,VALID,251,VALID,0.777876,
2007-03-19, 00:53:00,VALID,916.359,VALID,0,VALID,100,VALID,48.8369,VALID,19.8258,VALID,244,VALID,0.704545,
2007-03-19, 00:54:00,VALID,916.378,VALID,0,VALID,100,VALID,50.2123,VALID,19.8421,VALID,228,VALID,0.412287,
2007-03-19, 00:55:00,VALID,916.386,VALID,0,VALID,100,VALID,52.0632,VALID,19.8258,VALID,228,VALID,0.299665,
2007-03-19, 00:56:00,VALID,916.382,VALID,0,VALID,100,VALID,54.4575,VALID,19.8291,VALID,228,VALID,0.260538,
2007-03-19, 00:57:00,VALID,916.397,VALID,0,VALID,100,VALID,56.9367,VALID,19.8161,VALID,228,VALID,0.198933,
2007-03-19, 00:58:00,VALID,916.4,VALID,0,VALID,100,VALID,58.9744,VALID,19.8126,VALID,228,VALID,0.027439,
2007-03-19, 00:59:00,VALID,916.414,VALID,0,VALID,100,VALID,60.1291,VALID,19.8321,VALID,228,VALID,0.0739462,
2007-03-19, 01:00:00,VALID,916.407,VALID,0,VALID,100,VALID,61.5725,VALID,19.868,VALID,228,VALID,0,
2007-03-19, 01:01:00,VALID,916.422,VALID,0,VALID,100,VALID,63.5083,VALID,19.9167,VALID,228,VALID,0.0466933,
2007-03-19, 01:02:00,VALID,916.418,VALID,0,VALID,100,VALID,65.8856,VALID,19.9783,VALID,228,VALID,0,
2007-03-19, 01:03:00,VALID,916.432,VALID,0,VALID,100,VALID,68.246,VALID,20.0335,VALID,228,VALID,0,
2007-03-19, 01:04:00,VALID,916.435,VALID,0,VALID,100,VALID,70.4874,VALID,20.0984,VALID,228,VALID,0.0012429,
2007-03-19, 01:05:00,VALID,916.423,VALID,0,VALID,100,VALID,73.4081,VALID,20.0817,VALID,228,VALID,0,
2007-03-19, 01:06:00,VALID,916.429,VALID,0,VALID,100,VALID,76.3968,VALID,20.1046,VALID,228,VALID,0.0364583,
2007-03-19, 01:07:00,VALID,916.404,VALID,0,VALID,100,VALID,79.0627,VALID,20.1111,VALID,228,VALID,0.178472,
2007-03-19, 01:08:00,VALID,916.401,VALID,0,VALID,100,VALID,83.0363,VALID,20.1341,VALID,256,VALID,0.47311,
2007-03-19, 01:09:00,VALID,916.407,VALID,0,VALID,100,VALID,34.3862,VALID,20.0467,VALID,339,VALID,0.526163,
2007-03-19, 01:10:00,VALID,916.405,VALID,0,VALID,100,VALID,47.818,VALID,20.0308,VALID,26,VALID,1.11283,
2007-03-19, 01:11:00,VALID,916.422,VALID,0,VALID,100,VALID,97.436,VALID,20.0143,VALID,23,VALID,0.853277,
2007-03-19, 01:12:00,VALID,916.428,VALID,0,VALID,100,VALID,97.3002,VALID,19.9719,VALID,23,VALID,0.471989,
2007-03-19, 01:13:00,VALID,916.426,VALID,0,VALID,100,VALID,97.3681,VALID,19.9818,VALID,23,VALID,0.562863,
2007-03-19, 01:14:00,VALID,916.446,VALID,0,VALID,100,VALID,97.6568,VALID,20.053,VALID,25,VALID,0.5625,
2007-03-19, 01:15:00,VALID,916.451,VALID,0,VALID,100,VALID,98.1492,VALID,20.1179,VALID,25,VALID,0.391622,
2007-03-19, 01:16:00,VALID,916.451,VALID,0,VALID,100,VALID,99.4907,VALID,20.1341,VALID,25,VALID,0.113095,
2007-03-19, 01:17:00,VALID,916.455,VALID,0,VALID,100,VALID,101.494,VALID,20.1281,VALID,28,VALID,0.0710938,
2007-03-19, 01:18:00,VALID,916.449,VALID,0,VALID,100,VALID,103.498,VALID,20.1081,VALID,46,VALID,0.634411,
2007-03-19, 01:19:00,VALID,916.458,VALID,0,VALID,100,VALID,104.551,VALID,20.0912,VALID,35,VALID,0.727896,
2007-03-19, 01:20:00,VALID,916.464,VALID,0,VALID,100,VALID,106.283,VALID,20.1309,VALID,24,VALID,0.321181,
2007-03-19, 01:21:00,VALID,916.467,VALID,0,VALID,100,VALID,108.711,VALID,20.199,VALID,27,VALID,0.366071,
2007-03-19, 01:22:00,VALID,916.475,VALID,0,VALID,100,VALID,111.021,VALID,20.225,VALID,33,VALID,0.762173,
2007-03-19, 01:23:00,VALID,916.477,VALID,0,VALID,100,VALID,114.638,VALID,20.1601,VALID,38,VALID,0.756445,
2007-03-19, 01:24:00,VALID,916.49,VALID,0,VALID,100,VALID,119.494,VALID,20.1925,VALID,38,VALID,0.741602,
2007-03-19, 01:25:00,VALID,916.493,VALID,0,VALID,100,VALID,122.075,VALID,20.1828,VALID,40,VALID,1.07576,
2007-03-19, 01:26:00,VALID,916.502,VALID,0,VALID,100,VALID,124.673,VALID,20.2152,VALID,43,VALID,0.70847,
2007-03-19, 01:27:00,VALID,916.518,VALID,0,VALID,100,VALID,126.219,VALID,20.2542,VALID,44,VALID,0.546693,
2007-03-19, 01:28:00,VALID,916.526,VALID,0,VALID,100,VALID,126.677,VALID,20.2672,VALID,47,VALID,0.503516,
2007-03-19, 01:29:00,VALID,916.525,VALID,0,VALID,100,VALID,126.932,VALID,20.2387,VALID,49,VALID,0.255208,
2007-03-19, 01:30:00,VALID,916.536,VALID,0,VALID,100,VALID,127.764,VALID,20.1988,VALID,49,VALID,0.03125,
2007-03-19, 01:31:00,VALID,916.559,VALID,0,VALID,100,VALID,129.852,VALID,20.2042,VALID,49,VALID,0.00958807,
2007-03-19, 01:32:00,VALID,916.555,VALID,0,VALID,100,VALID,132.977,VALID,20.2137,VALID,49,VALID,0.182546,
2007-03-19, 01:33:00,VALID,916.565,VALID,0,VALID,100,VALID,137.579,VALID,20.2237,VALID,78,VALID,0.513719,
2007-03-19, 01:34:00,VALID,916.581,VALID,0,VALID,100,VALID,144.014,VALID,20.2177,VALID,87,VALID,0.286519,
2007-03-19, 01:35:00,VALID,916.578,VALID,0,VALID,100,VALID,149.55,VALID,20.1945,VALID,87,VALID,0.492914,
2007-03-19, 01:36:00,VALID,916.581,VALID,0,VALID,100,VALID,154.848,VALID,20.2339,VALID,87,VALID,0.42351,
2007-03-19, 01:37:00,VALID,916.595,VALID,0,VALID,100,VALID,143.658,VALID,20.2561,VALID,87,VALID,0.333705,
2007-03-19, 01:38:00,VALID,916.614,VALID,0,VALID,100,VALID,162.456,VALID,20.2926,VALID,101,VALID,0.592842,
2007-03-19, 01:39:00,VALID,916.627,VALID,0,VALID,100,VALID,162.354,VALID,20.361,VALID,115,VALID,0.217862,
2007-03-19, 01:40:00,VALID,916.647,VALID,0,VALID,100,VALID,159.79,VALID,20.4124,VALID,117,VALID,0.193229,
2007-03-19, 01:41:00,VALID,916.673,VALID,0,VALID,100,VALID,156.444,VALID,20.4389,VALID,158,VALID,0.686955,
2007-03-19, 01:42:00,VALID,916.685,VALID,0,VALID,100,VALID,152.369,VALID,20.4549,VALID,169,VALID,0.973958,
2007-03-19, 01:43:00,VALID,916.705,VALID,0,VALID,100,VALID,156.495,VALID,20.4219,VALID,166,VALID,0.774626,
2007-03-19, 01:44:00,VALID,916.723,VALID,0,VALID,100,VALID,160.707,VALID,20.3989,VALID,169,VALID,0.737424,
2007-03-19, 01:45:00,VALID,916.75,VALID,0,VALID,100,VALID,167.159,VALID,20.4184,VALID,167,VALID,0.795422,
2007-03-19, 01:46:00,VALID,916.76,VALID,0,VALID,100,VALID,173.969,VALID,20.4516,VALID,146,VALID,0.370998,
2007-03-19, 01:47:00,VALID,916.773,VALID,0,VALID,100,VALID,177.076,VALID,20.4641,VALID,186,VALID,0.354167,
2007-03-19, 01:48:00,VALID,916.783,VALID,0,VALID,100,VALID,179.385,VALID,20.4743,VALID,141,VALID,0.527798,
2007-03-19, 01:49:00,VALID,916.805,VALID,0,VALID,100,VALID,180.931,VALID,20.5135,VALID,179,VALID,0.471094,
2007-03-19, 01:50:00,VALID,916.801,VALID,0,VALID,100,VALID,182.289,VALID,20.4998,VALID,153,VALID,0.908794,
2007-03-19, 01:51:00,VALID,916.803,VALID,0,VALID,100,VALID,183.427,VALID,20.4878,VALID,175,VALID,0.545703,
2007-03-19, 01:52:00,VALID,916.808,VALID,0,VALID,100,VALID,185.753,VALID,20.5225,VALID,133,VALID,0.248547,
2007-03-19, 01:53:00,VALID,916.816,VALID,0,VALID,100,VALID,187.757,VALID,20.5717,VALID,123,VALID,0.231286,
2007-03-19, 01:54:00,VALID,916.813,VALID,0,VALID,100,VALID,189.438,VALID,20.6004,VALID,133,VALID,0.466082,
2007-03-19, 01:55:00,VALID,916.839,VALID,0,VALID,100,VALID,191.238,VALID,20.6136,VALID,138,VALID,0.460751,
2007-03-19, 01:56:00,VALID,916.846,VALID,0,VALID,100,VALID,192.206,VALID,20.5712,VALID,148,VALID,0.510938,
2007-03-19, 01:57:00,VALID,916.856,VALID,0,VALID,100,VALID,192.257,VALID,20.562,VALID,162,VALID,0.214208,
2007-03-19, 01:58:00,VALID,916.869,VALID,0,VALID,100,VALID,191.815,VALID,20.5877,VALID,164,VALID,0.408346,
2007-03-19, 01:59:00,VALID,916.884,VALID,0,VALID,100,VALID,190.593,VALID,20.6266,VALID,166,VALID,0.437137,
2007-03-19, 02:00:00,VALID,916.888,VALID,0,VALID,100,VALID,189.031,VALID,20.6593,VALID,189,VALID,0.602951,
2007-03-19, 02:01:00,VALID,916.907,VALID,0,VALID,100,VALID,188.233,VALID,20.7188,VALID,188,VALID,0.720796,
2007-03-19, 02:02:00,VALID,916.922,VALID,0,VALID,100,VALID,187.502,VALID,20.7418,VALID,192,VALID,0.358259,
2007-03-19, 02:03:00,VALID,916.948,VALID,0,VALID,100,VALID,186.076,VALID,20.7872,VALID,191,VALID,0.340298,
2007-03-19, 02:04:00,VALID,916.956,VALID,0,VALID,100,VALID,183.868,VALID,20.8326,VALID,183,VALID,0.713663,
2007-03-19, 02:05:00,VALID,916.97,VALID,0,VALID,99.5196,VALID,181.661,VALID,20.8329,VALID,163,VALID,1.27925,
2007-03-19, 02:06:00,VALID,916.993,VALID,0,VALID,99.278,VALID,179.233,VALID,20.7745,VALID,162,VALID,0.960547,
2007-03-19, 02:07:00,VALID,916.998,VALID,0,VALID,99.4865,VALID,177.467,VALID,20.7585,VALID,165,VALID,0.651786,
2007-03-19, 02:08:00,VALID,917.01,VALID,0,VALID,99.8894,VALID,176.635,VALID,20.7942,VALID,167,VALID,0.110305,
2007-03-19, 02:09:00,VALID,917.018,VALID,0,VALID,99.8728,VALID,177.314,VALID,20.8426,VALID,128,VALID,0.458576,
2007-03-19, 02:10:00,VALID,917.037,VALID,0,VALID,99.985,VALID,177.755,VALID,20.8854,VALID,123,VALID,0.170898,
2007-03-19, 02:11:00,VALID,917.044,VALID,0,VALID,99.7861,VALID,177.501,VALID,20.9111,VALID,148,VALID,0.886628,
2007-03-19, 02:12:00,VALID,917.061,VALID,0,VALID,99.0949,VALID,176.872,VALID,20.8462,VALID,163,VALID,1.01772,
2007-03-19, 02:13:00,VALID,917.086,VALID,0,VALID,99.072,VALID,176.363,VALID,20.8037,VALID,159,VALID,0.585938,
2007-03-19, 02:14:00,VALID,917.106,VALID,0,VALID,99.3975,VALID,176.057,VALID,20.8197,VALID,149,VALID,0.686914,
2007-03-19, 02:15:00,VALID,917.119,VALID,0,VALID,99.3212,VALID,176.159,VALID,20.8426,VALID,138,VALID,0.498224,
2007-03-19, 02:16:00,VALID,917.14,VALID,0,VALID,99.4903,VALID,176.261,VALID,20.8756,VALID,112,VALID,0.215625,
2007-03-19, 02:17:00,VALID,917.156,VALID,0,VALID,99.8947,VALID,175.786,VALID,20.9535,VALID,100,VALID,0.458576,
2007-03-19, 02:18:00,VALID,917.191,VALID,0,VALID,99.7078,VALID,175.582,VALID,21.012,VALID,111,VALID,0.473474,
2007-03-19, 02:19:00,VALID,917.203,VALID,0,VALID,99.5781,VALID,176.363,VALID,21.0477,VALID,150,VALID,0.391715,
2007-03-19, 02:20:00,VALID,917.217,VALID,0,VALID,99.559,VALID,178.486,VALID,21.0966,VALID,139,VALID,0.522436,
2007-03-19, 02:21:00,VALID,917.244,VALID,0,VALID,99.3695,VALID,181.101,VALID,21.1096,VALID,146,VALID,0.163881,
2007-03-19, 02:22:00,VALID,917.253,VALID,0,VALID,99.0033,VALID,183.563,VALID,21.0836,VALID,190,VALID,0.43378,
2007-03-19, 02:23:00,VALID,917.285,VALID,0,VALID,98.796,VALID,185.94,VALID,21.0801,VALID,186,VALID,0.439276,
2007-03-19, 02:24:00,VALID,917.285,VALID,0,VALID,98.7986,VALID,188.844,VALID,21.1191,VALID,178,VALID,0.169457,
2007-03-19, 02:25:00,VALID,917.296,VALID,0,VALID,98.9766,VALID,192.817,VALID,21.174,VALID,190,VALID,0.728693,
2007-03-19, 02:26:00,VALID,917.293,VALID,0,VALID,98.6053,VALID,196.723,VALID,21.207,VALID,191,VALID,0.688772,
2007-03-19, 02:27:00,VALID,917.31,VALID,0,VALID,98.1908,VALID,200.391,VALID,21.2162,VALID,171,VALID,0.655382,
2007-03-19, 02:28:00,VALID,917.307,VALID,0,VALID,98.3103,VALID,203.481,VALID,21.2389,VALID,175,VALID,0.186435,
2007-03-19, 02:29:00,VALID,917.302,VALID,0,VALID,98.3446,VALID,206.181,VALID,21.3071,VALID,176,VALID,0.531436,
2007-03-19, 02:30:00,VALID,917.315,VALID,0,VALID,98.2315,VALID,208.66,VALID,21.3385,VALID,181,VALID,0.478516,
2007-03-19, 02:31:00,VALID,917.34,VALID,0,VALID,97.5982,VALID,210.919,VALID,21.3542,VALID,169,VALID,0.726385,
2007-03-19, 02:32:00,VALID,917.357,VALID,0,VALID,96.8759,VALID,213.075,VALID,21.3185,VALID,142,VALID,1.06172,
2007-03-19, 02:33:00,VALID,917.372,VALID,0,VALID,96.7551,VALID,214.96,VALID,21.2441,VALID,146,VALID,0.704861,
2007-03-19, 02:34:00,VALID,917.393,VALID,0,VALID,97.5448,VALID,217.168,VALID,21.296,VALID,106,VALID,0.435547,
2007-03-19, 02:35:00,VALID,917.401,VALID,0,VALID,97.6274,VALID,219.223,VALID,21.3609,VALID,145,VALID,0.731534,
2007-03-19, 02:36:00,VALID,917.423,VALID,0,VALID,97.4723,VALID,221.872,VALID,21.3899,VALID,160,VALID,0.501598,
2007-03-19, 02:37:00,VALID,917.432,VALID,0,VALID,97.5054,VALID,224.198,VALID,21.4321,VALID,99,VALID,0.870427,
2007-03-19, 02:38:00,VALID,917.453,VALID,0,VALID,96.3431,VALID,226.066,VALID,21.3899,VALID,112,VALID,0.629836,
2007-03-19, 02:39:00,VALID,917.454,VALID,0,VALID,96.3622,VALID,227.832,VALID,21.3317,VALID,113,VALID,0.457889,
2007-03-19, 02:40:00,VALID,917.483,VALID,0,VALID,96.8009,VALID,229.615,VALID,21.3512,VALID,139,VALID,0.459028,
2007-03-19, 02:41:00,VALID,917.505,VALID,0,VALID,97.0056,VALID,231.5,VALID,21.3969,VALID,208,VALID,0.296875,
2007-03-19, 02:42:00,VALID,917.525,VALID,0,VALID,96.8314,VALID,233.962,VALID,21.4518,VALID,208,VALID,0.332919,
2007-03-19, 02:43:00,VALID,917.535,VALID,0,VALID,96.9586,VALID,237.018,VALID,21.5135,VALID,215,VALID,0.208097,
2007-03-19, 02:44:00,VALID,917.549,VALID,0,VALID,96.6534,VALID,240.669,VALID,21.5719,VALID,215,VALID,0.175967,
2007-03-19, 02:45:00,VALID,917.559,VALID,0,VALID,96.7373,VALID,245.526,VALID,21.6374,VALID,225,VALID,0.495276,
2007-03-19, 02:46:00,VALID,917.595,VALID,0,VALID,96.221,VALID,250.196,VALID,21.645,VALID,224,VALID,0.46548,
2007-03-19, 02:47:00,VALID,917.608,VALID,0,VALID,96.2401,VALID,252.505,VALID,21.6453,VALID,236,VALID,0.547991,
2007-03-19, 02:48:00,VALID,917.626,VALID,0,VALID,97.0311,VALID,253.677,VALID,21.7064,VALID,219,VALID,0.435937,
2007-03-19, 02:49:00,VALID,917.63,VALID,0,VALID,97.368,VALID,243.607,VALID,21.8044,VALID,230,VALID,0.249442,
2007-03-19, 02:50:00,VALID,917.636,VALID,0,VALID,97.2828,VALID,228.902,VALID,21.8428,VALID,225,VALID,0.302689,
2007-03-19, 02:51:00,VALID,917.649,VALID,0,VALID,97.1519,VALID,225.743,VALID,21.869,VALID,227,VALID,0.339753,
2007-03-19, 02:52:00,VALID,917.642,VALID,0,VALID,96.4169,VALID,218.458,VALID,21.8179,VALID,280,VALID,0.684411,
2007-03-19, 02:53:00,VALID,917.641,VALID,0,VALID,96.4385,VALID,210.308,VALID,21.7879,VALID,355,VALID,0.464944,
2007-03-19, 02:54:00,VALID,917.656,VALID,0,VALID,96.8251,VALID,214.23,VALID,21.8531,VALID,22,VALID,0.306895,
2007-03-19, 02:55:00,VALID,917.647,VALID,0,VALID,97.2027,VALID,218.764,VALID,21.9251,VALID,23,VALID,0.379464,
2007-03-19, 02:56:00,VALID,917.66,VALID,0,VALID,96.9904,VALID,223.977,VALID,21.9794,VALID,30,VALID,0.217416,
2007-03-19, 02:57:00,VALID,917.662,VALID,0,VALID,96.9802,VALID,228.936,VALID,22.0152,VALID,335,VALID,0.109184,
2007-03-19, 02:58:00,VALID,917.667,VALID,0,VALID,96.9064,VALID,228.851,VALID,22.0606,VALID,342,VALID,0.130729,
2007-03-19, 02:59:00,VALID,917.685,VALID,0,VALID,96.6191,VALID,224.113,VALID,22.1199,VALID,347,VALID,0.213986,
2007-03-19, 03:00:00,VALID,917.704,VALID,0,VALID,96.6928,VALID,220.224,VALID,22.1705,VALID,318,VALID,0.153773,
2007-03-19, 03:01:00,VALID,917.723,VALID,0,VALID,96.2859,VALID,219.511,VALID,22.2183,VALID,302,VALID,0.118641,
2007-03-19, 03:02:00,VALID,917.728,VALID,0,VALID,96.015,VALID,219.528,VALID,22.2735,VALID,265,VALID,0.234908,
2007-03-19, 03:03:00,VALID,917.742,VALID,0,VALID,95.1542,VALID,219.375,VALID,22.2673,VALID,226,VALID,0.66582,
2007-03-19, 03:04:00,VALID,917.739,VALID,0,VALID,94.6125,VALID,216.047,VALID,22.2408,VALID,183,VALID,0.499818,
2007-03-19, 03:05:00,VALID,917.752,VALID,0,VALID,94.4929,VALID,218.407,VALID,22.231,VALID,162,VALID,0.378239,
2007-03-19, 03:06:00,VALID,917.758,VALID,0,VALID,94.7485,VALID,237.409,VALID,22.2898,VALID,167,VALID,0.202415,
2007-03-19, 03:07:00,VALID,917.751,VALID,0,VALID,94.0313,VALID,259.365,VALID,22.2735,VALID,199,VALID,0.442116,
2007-03-19, 03:08:00,VALID,917.743,VALID,0,VALID,93.7961,VALID,267.788,VALID,22.29,VALID,177,VALID,0.641868,
2007-03-19, 03:09:00,VALID,917.73,VALID,0,VALID,93.7478,VALID,309.832,VALID,22.3101,VALID,145,VALID,0.652058,
2007-03-19, 03:10:00,VALID,917.749,VALID,0,VALID,94.1089,VALID,350.128,VALID,22.3683,VALID,141,VALID,0.365234,
2007-03-19, 03:11:00,VALID,917.727,VALID,0,VALID,92.7076,VALID,369.978,VALID,22.375,VALID,119,VALID,0.831214,
2007-03-19, 03:12:00,VALID,917.699,VALID,0,VALID,92.1125,VALID,365.139,VALID,22.2903,VALID,81,VALID,0.604288,
2007-03-19, 03:13:00,VALID,917.69,VALID,0,VALID,93.9728,VALID,368.263,VALID,22.3683,VALID,58,VALID,0.53457,
2007-03-19, 03:14:00,VALID,917.69,VALID,0,VALID,94.69,VALID,383.954,VALID,22.5082,VALID,291,VALID,0.450648,
2007-03-19, 03:15:00,VALID,917.682,VALID,0,VALID,93.9283,VALID,379.403,VALID,22.5861,VALID,168,VALID,0.706101,
2007-03-19, 03:16:00,VALID,917.672,VALID,0,VALID,92.424,VALID,393.412,VALID,22.6029,VALID,126,VALID,0.824306,
2007-03-19, 03:17:00,VALID,917.646,VALID,0,VALID,92.4825,VALID,433.538,VALID,22.5834,VALID,87,VALID,0.639509,
2007-03-19, 03:18:00,VALID,917.644,VALID,0,VALID,92.9797,VALID,462.711,VALID,22.6248,VALID,69,VALID,0.799964,
2007-03-19, 03:19:00,VALID,917.638,VALID,0,VALID,92.6415,VALID,510.121,VALID,22.6646,VALID,87,VALID,0.65282,
2007-03-19, 03:20:00,VALID,917.639,VALID,0,VALID,93.2976,VALID,564.256,VALID,22.7196,VALID,85,VALID,0.917468,
2007-03-19, 03:21:00,VALID,917.613,VALID,0,VALID,93.6333,VALID,667.771,VALID,22.8438,VALID,64,VALID,1.03597,
2007-03-19, 03:22:00,VALID,917.609,VALID,0,VALID,93.3447,VALID,743.659,VALID,22.9995,VALID,90,VALID,0.866097,
2007-03-19, 03:23:00,VALID,917.598,VALID,0,VALID,92.3261,VALID,783.852,VALID,23.1421,VALID,151,VALID,0.622222,
2007-03-19, 03:24:00,VALID,917.599,VALID,0,VALID,89.4218,VALID,791.663,VALID,23.3305,VALID,115,VALID,0.825994,
2007-03-19, 03:25:00,VALID,917.581,VALID,0,VALID,88.3167,VALID,826.304,VALID,23.373,VALID,121,VALID,0.354688,
2007-03-19, 03:26:00,VALID,917.568,VALID,0,VALID,86.9841,VALID,905.758,VALID,23.4843,VALID,83,VALID,1.53051,
2007-03-19, 03:27:00,VALID,917.577,VALID,0,VALID,87.5538,VALID,881.407,VALID,23.4613,VALID,78,VALID,0.853609,
2007-03-19, 03:28:00,VALID,917.574,VALID,0,VALID,88.5291,VALID,971.049,VALID,23.5455,VALID,64,VALID,0.480469,
2007-03-19, 03:29:00,VALID,917.579,VALID,0,VALID,89.7486,VALID,967.924,VALID,23.7498,VALID,49,VALID,0.800327,
2007-03-19, 03:30:00,VALID,917.583,VALID,0,VALID,86.9752,VALID,863.934,VALID,24.0189,VALID,190,VALID,0.681021,
2007-03-19, 03:31:00,VALID,917.576,VALID,0,VALID,82.9277,VALID,990.237,VALID,24.2047,VALID,149,VALID,0.948828,
2007-03-19, 03:32:00,VALID,917.576,VALID,0,VALID,81.4908,VALID,983.75,VALID,24.322,VALID,124,VALID,0.611919,
2007-03-19, 03:33:00,VALID,917.558,VALID,0,VALID,82.3542,VALID,809.969,VALID,24.4351,VALID,234,VALID,0.392857,
2007-03-19, 03:34:00,VALID,917.558,VALID,0,VALID,82.0541,VALID,668.484,VALID,24.3642,VALID,281,VALID,0.403232,
2007-03-19, 03:35:00,VALID,917.55,VALID,0,VALID,82.0427,VALID,520.734,VALID,24.4812,VALID,161,VALID,1.10617,
2007-03-19, 03:36:00,VALID,917.533,VALID,0,VALID,79.3303,VALID,524.945,VALID,24.478,VALID,146,VALID,1.11403,
2007-03-19, 03:37:00,VALID,917.512,VALID,0,VALID,79.4244,VALID,754.577,VALID,24.3347,VALID,139,VALID,0.837028,
2007-03-19, 03:38:00,VALID,917.492,VALID,0,VALID,79.3621,VALID,748.549,VALID,24.3028,VALID,158,VALID,0.912946,
2007-03-19, 03:39:00,VALID,917.473,VALID,0,VALID,80.4659,VALID,832.604,VALID,24.3119,VALID,155,VALID,0.605755,
2007-03-19, 03:40:00,VALID,917.463,VALID,0,VALID,80.4379,VALID,765.869,VALID,24.4647,VALID,113,VALID,0.591751,